Tracking 19638 objects as of 20-May-2019
HD Live streaming from Space Station
objects crossing your sky now

OPS 9322 (IDSCS 9)

Track OPS 9322 (IDSCS 9) now!
OPS 9322 (IDSCS 9) is classified as:


NORAD ID: 2649
Int'l Code: 1967-003B
Perigee: 33,545.0 km
Apogee: 33,830.7 km
Inclination: 3.7 °
Period: 1,329.9 minutes
Semi major axis: 40058 km
RCS: 0.1995 m2 (medium)
Launch date: January 18, 1967
Source: United States (US)
Launch site: AIR FORCE EASTERN TEST RANGE (AFETR)
aabbcc
Your satellite tracking list
Your tracking list is empty




NASA's NSSDC Master Catalog

Two Line Element Set (TLE):
1  2649U 67003B   19140.15721810 -.00000091  00000-0  00000+0 0  9997
2  2649   3.6552  57.8416 0035662  47.7645 141.6854  1.08281830111441
Source of the keplerian elements: AFSPC